weather.gov     
National Weather Service

Other Surface Observations
NWS Homepage
This page is being discontinued on March 12, 2014.
The same data is available at this site. Please update your bookmarks.
Thank you, and we apologize for the inconvenience.
Please send an email to SR-SRH.Webmaster@noaa.gov with any concerns.


Current Version
Previous Version:    01  02  03  04  05  06  07  08  09  10  11  12  13  14  15  16  17  18  19  20  21  22  23  24  25  26  27  28  29  30  
   31  32  33  34  35  36  37  38  39  40  41  42  43  44  45  46  47  48  49  50  51  52  53  54  55  56  57  58  59  60  
[Printable]
771
SXUS52 KCHS 220925
OSOCHS

MARINE OBSERVATIONS
NATIONAL WEATHER SERVICE CHARLESTON SC
500 AM EDT FRI AUG 22 2014

...DOWNTOWN CHARLESTON AND HARBOR...

CITY           SKY/WX    TMP DP  RH WIND       PRES   REMARKS
WATERFRONT PRK   N/A     82 N/A N/A W6          N/A
FORT JOHNSON   NOT AVBL

...LAKE MOULTRIE...

CITY           SKY/WX    TMP DP  RH WIND       PRES   REMARKS
PINOPOLIS        N/A     82  75  78 SW6       29.94S

...LAKE AND SUPPLEMENTAL COASTAL OBSERVATIONS...

STATION/POSITION TIME  TEMP    WIND        PRES    WAVE   SWELL
                       AIR SEA DIR/SP/G            HT/PER HT/PER/DIR
                 (UTC) (F)     (DEG/KT/KT) (MB)    (FT/S) (FT/S/D)
FORT PULASKI     0900   82     290/  5/  6 1016.8F
SAPELO ISLAND    0900   79     280/  3     1017.0S
UPR LAKE MARION  NOT AVBL
WINYAH BAY       0900   80     260/  2     1016.0S
LAKE MURRAY      0900   84     200/  5/  7 1015.6S
ACE BASIN NERRS  0900   78        CALM     1017.0S


...C-MAN AND BUOY OBSERVATIONS...

STATION/POSITION TIME  TEMP    WIND        PRES    WAVE   SWELL
                       AIR SEA DIR/SP/G            HT/PER HT/PER/DIR
                 (UTC) (F)     (DEG/KT/KT) (MB)    (FT/S) (FT/S/D)
BUOY 41004       0900   84 84  250/ 10/ 14 1015.6F   2/ 8   2/ 8
BUOY 41008       0800   84 85  260/  8/  8 1016.5F   2/ 3   2/130/ 8
FOLLY BEACH CMAN 0900   81     250/  3/  4 1016.7F
CAPERS NS BUOY   0800   84     250/ 10/ 12   N/A
FRIPP NS BUOY    NOT AVBL
5E ST. MARYS GA  0800      82                N/A     2/ 3
FRYING PAN BUOY  NOT AVBL
BUOY 41025       0900   81     240/ 10/ 12 1014.1F   2/ 8   2/ 70/ 8
CAPE LOOKOUT NC  0900   81     250/  7/  8 1014.8F
BUOY 41002       NOT AVBL
BUOY 41010       0900   84 86  210/  6/  8 1017.8R   2/ 8   2/ 90/ 8
BUOY 41012       NOT AVBL
ST AUGUSTINE FL  0900   77     260/  6/  7 1018.1F


$$




U.S. Dept. of Commerce
NOAA National Weather Service
1325 East West Highway
Silver Spring, MD 20910
E-mail: w-nws.webmaster@noaa.gov
Page last modified: May 16, 2007
NATIONAL WEATHER SERVICE: for Safety, for Work, for Fun - FOR LIFE